Regional Weather Roundup
Issued by NWS

Home | Current Version | Previous Version | Graphics & Text | Print | Product List | Glossary On
Versions: 1 2 3 4 5 6 7 8 9 10 11 12 13 14 15 16 17 18 19 20 21 22 23 24 25 26 27 28 29 30 31 32 33 34 35 36 37 38 39 40 41 42 43 44 45 46 47 48 49 50
000
ASUS43 KFSD 301502
RWRSD

WEATHER ROUNDUP FOR SOUTH DAKOTA
NATIONAL WEATHER SERVICE SIOUX FALLS SD
1000 AM CDT TUE AUG 30 2016

NOTE: "FAIR" INDICATES FEW OR NO CLOUDS BELOW 12,000 FEET WITH NO
SIGNIFICANT WEATHER AND/OR OBSTRUCTIONS TO VISIBILITY.


SDZ001>005-009-010-012>017-301600-
NORTHWEST AND NORTH CENTRAL SOUTH DAKOTA

CITY           SKY/WX    TMP DP  RH WIND       PRES   REMARKS
BUFFALO          N/A     68  61  78 SE17      30.18F
FAITH            N/A     69  60  73 SE12      30.24S
MOBRIDGE       SUNNY     70  52  52 E13       30.21F
$$

SDZ012>016-024>037-041>051-057-063-072>074-301600-
SOUTHWEST AND SOUTH CENTRAL SOUTH DAKOTA

CITY           SKY/WX    TMP DP  RH WIND       PRES   REMARKS
RAPID CTY ARPT CLOUDY    63  62  97 S7        30.25F
PIERRE         PTSUNNY   71  65  81 E12       30.19S
CUSTER         SUNNY     69  58  67 VRB3      30.37F
ELLSWORTH AFB  CLOUDY    64  64 100 S7        30.25
PHILIP         SUNNY     69  63  81 E9        30.21F
PINE RIDGE     SUNNY     65  60  84 CALM      30.27R
WINNER         FAIR      76  66  71 SE5       30.21S
$$

SDZ004>011-016>023-039-040-301600-
NORTHEAST SOUTH DAKOTA

CITY           SKY/WX    TMP DP  RH WIND       PRES   REMARKS
ABERDEEN       SUNNY     68  57  68 NE8       30.24S
WATERTOWN      SUNNY     72  63  73 NE12      30.23F
SISSETON         N/A     67  59  75 VRB3      30.24S
$$

SDZ017-020-022-023-036>040-048>070-301600-
SOUTHEAST SOUTH DAKOTA

CITY           SKY/WX    TMP DP  RH WIND       PRES   REMARKS
SIOUX FALLS    CLOUDY    73  68  84 S9        30.21S
HURON          MOSUNNY   76  66  71 VRB7      30.21R
CHAMBERLAIN    PTSUNNY   74  70  87 SE9       30.20F
YANKTON        CLOUDY    70  64  83 S5        30.20S
$$

ABBREVIATIONS USED IN REMARKS
   TC - TEMPERATURE IN CELSIUS
  WCI - WIND CHILL INDEX
   HX - HEAT INDEX
  VSB - VISIBILITY





USA.gov is the U.S. government's official web portal to all federal, state and local government web resources and services.